Погода в Атке

Россия / Магаданская область     60°50′06″N   151°47′20″E
темп.,
°C
ветер,
м/с
пор.,
м/с
влажн.,
%
обл.,
%
осадки,
мм/ч
давл.,
гПа
погр.,
м
21 апреля, ср
ср2123:00−11в229899 0.1 102110
02:00−10вюв2210092 0.0 102122
05:00−10вюв229881 0.1 102212
08:00−6вюв229574 0.2 1021125
11:00−2юв488698 0.5 1020705
14:00−2юв379698 0.9 1019722
17:00−2юв379096 1.6 1019697
20:00−5ююв239787 0.5 102279
22 апреля, чт
чт2223:00−8юв229886 0.9 102440
02:00−11юв229987 0.3 102511
05:00−12вюв229875 0.6 102610
08:00−7вюв2294100 0.2 1024116
11:00−4ююв248899 0.4 1022593
14:00−3ю4585100 0.3 1021837
17:00−3ю4582100 0.4 1020706
20:00−8ю339630 0.0 102229
23 апреля, пт
пт2323:00−7ю3494100 0.1 1022129
02:00−7ююв3392100 0.1 102081
05:00−9ююв3396100 0.1 102141
08:00−7ююв2494100 0.4 1018284
11:00−5ю5688100 1.3 1016605
14:00−4ю5782100 0.1 1013799
17:00−4ююв2493100 0.5 1011424
20:00−5вюв2297100 1.4 100869
24 апреля, сб
сб2423:00−7в2197100 3.8 100631
02:00−8вюв1197100 1.1 100519
05:00−12вюв1198100 1.5 100510
08:00−8всв1193100 0.6 1004188
11:00−8с4390100 1.3 1005438
14:00−7с4483100 0.4 1006615
17:00−6ссв2185100 2.0 1006373
20:00−11с449194 0.2 101047
25 апреля, вс
вс2523:00−20с3310050 0.3 101617
02:00−21с439951 0.0 101630
05:00−21с459851 0.0 101746
08:00−16с6791100 0.0 1014346
11:00−13с6881100 0.0 1012601
14:00−11с7878100 0.0 1010769
17:00−12ссв5785100 0.3 1009686
20:00−13с4695100 0.4 1009451